Tracking 35274 objects as of 10-Sep-2026
HD Live streaming from Space Station
objects crossing your sky now

SALYUT 4 DEB


SALYUT 4 DEB is no longer on orbit


NORAD ID: 7630
Int'l Code: 1974-104G
Launch date: December 26, 1974
Source: Commonwealth of Independent States (former USSR) (CIS)
Launch site: TYURATAM MISSILE AND SPACE COMPLEX (TTMTR)
Decay date: 1975-04-15

Note: This is SATELLITE DEBRIS
Your satellite tracking list
Your tracking list is empty




NASA's NSSDC Master Catalog

Two Line Element Set (TLE):
1 07630U 74104  G 75095.23540353  .00628891 +00000-0 +00000-0 0  9997
2 07630 051.5884 005.2673 0004003 192.5653 167.5218 16.07678211015870
Source of the keplerian elements: AFSPC